Terminal Aerodrome Forecast
Issued by NWS Cleveland, OH

Home | Current Version | Previous Version | Text Only | Print | Product List | Glossary On
Versions: 1 2 3 4 5 6 7 8 9 10 11 12 13 14 15 16 17 18
466
FTUS41 KCLE 191120
TAFYNG
TAF
KYNG 191120Z 1912/2012 22004KT P6SM SCT040 BKN100
     FM191600 24008KT P6SM VCTS BKN035CB BKN100
      TEMPO 1918/1920 5SM -TSRA BR OVC035CB
     FM192000 28008KT P6SM -SHRA VCTS BKN040CB
      TEMPO 1920/1922 5SM -TSRA BKN040CB
     FM200000 30006KT P6SM SCT060
     FM200600 00000KT 4SM BR FEW200
      TEMPO 2009/2012 2SM BR=

USA.gov is the U.S. government's official web portal to all federal, state and local government web resources and services.